Flag for Belarus Weather past 2 weeks in Barysaw, Belarus

Now
72 °F

Passing clouds.


Feels Like: 77 °F
Forecast: 56 / 67 °F
Wind: 8 mph from West

Location: Minsk

Current Time: Jul 29, 2015 at 4:43:55 PM

Latest Report: Jul 29, 2015 at 4:00 PM


Visibility: N/A

Pressure: 29.74 "Hg

Humidity: 50%

Dew point: 52 °F

Location of BarysawLocation

Historic Weather in Barysaw — Graph

°F

Barysaw temperature yesterday

Maximum temperature yesterday: 72 °F (at 4:00 PM)
Minimum temperature yesterday: 54 °F (at 4:00 AM)
Average temperature yesterday: 61 °F

Past Weeks' High & Low Weather Summary

 TemperatureHumidityPressure
High84 °F (Jul 26, 12:30 PM)100% (Jul 14, 10:00 PM)30.07 "Hg (Jul 14, 10:00 PM)
Low46 °F (Jul 17, 5:00 AM)28% (Jul 19, 2:00 PM)29.53 "Hg (Jul 20, 6:00 AM)
Average63 °F72%29.86 "Hg
* Reported Jul 14 3:00 PM — Jul 29 3:30 PM, Barysaw, Weather by CustomWeather, © 2015

Note: Actual official high and low records may vary slightly from our data, if they occured in-between our weather recording intervals... More about our weather records

Advertising

Barysaw weather history for previous 24 hours

 ConditionsComfort  
Time TempWeatherWind HumidityBarometerVisibility
3:30 PM
Wed, Jul 29
70 °FBroken clouds.6 mph50%29.74 "HgN/A
3:00 PM68 °FBroken clouds.3 mph64%29.74 "HgN/A
2:30 PM64 °FPartly sunny.1 mph78%29.74 "HgN/A
2:00 PM63 °FBroken clouds.6 mph77%29.74 "HgN/A
1:54 PM68 °FBroken clouds.6 mph56%29.74 "HgN/A
1:30 PM68 °FSprinkles. Partly sunny.8 mph56%29.74 "HgN/A
1:00 PM70 °FPartly sunny.8 mph53%29.74 "HgN/A
12:30 PM68 °FPartly sunny.8 mph56%29.74 "HgN/A
12:00 PM70 °FPartly sunny.6 mph53%29.74 "HgN/A
11:30 AM70 °FPartly sunny.6 mph57%29.74 "HgN/A
11:00 AM68 °FPartly sunny.6 mph60%29.74 "HgN/A
10:30 AM66 °FPartly sunny.6 mph68%29.71 "HgN/A
10:00 AM64 °FScattered clouds.6 mph68%29.71 "HgN/A
9:50 AM63 °FScattered clouds.3 mph77%29.71 "HgN/A
9:30 AM63 °FScattered clouds.3 mph77%29.71 "HgN/A
9:00 AM61 °FScattered clouds.3 mph88%29.71 "HgN/A
8:30 AM61 °FBroken clouds.6 mph83%29.71 "HgN/A
8:00 AM59 °FPartly sunny.3 mph88%29.71 "HgN/A
7:30 AM57 °FPartly sunny.3 mph94%29.71 "HgN/A
7:00 AM55 °FPartly sunny.1 mph100%29.71 "HgN/A
6:30 AM55 °FPassing clouds.3 mph94%29.68 "HgN/A
6:00 AM55 °FPassing clouds.3 mph94%29.68 "HgN/A
5:30 AM55 °FClear.1 mph94%29.68 "Hg10 mi
5:00 AM54 °FClear.1 mph100%29.68 "Hg10 mi
4:30 AM54 °FClear.No wind94%29.68 "Hg10 mi
4:00 AM55 °FPassing clouds.3 mph94%29.68 "HgN/A
3:30 AM55 °FPassing clouds.6 mph94%29.65 "HgN/A
3:00 AM55 °FClear.3 mph94%29.65 "Hg10 mi
2:30 AM55 °FClear.No wind94%29.65 "Hg10 mi
2:00 AM55 °FClear.No wind94%29.68 "Hg10 mi
1:30 AM57 °FClear.1 mph88%29.68 "Hg10 mi
12:30 AM59 °FPassing clouds.3 mph88%29.65 "HgN/A
12:00 AM59 °FClear.No wind94%29.65 "Hg10 mi
11:30 PM
Tue, Jul 28
59 °FClear.No wind94%29.65 "Hg10 mi
11:00 PM59 °FPassing clouds.3 mph94%29.65 "HgN/A
10:30 PM59 °FPassing clouds.3 mph94%29.65 "HgN/A
10:00 PM59 °FSunny.1 mph94%29.65 "Hg10 mi
9:30 PM61 °FSunny.1 mph94%29.65 "Hg10 mi
9:00 PM61 °FPassing clouds.3 mph94%29.62 "HgN/A
8:30 PM63 °FPassing clouds.3 mph88%29.62 "HgN/A
8:00 PM64 °FPartly sunny.6 mph83%29.62 "HgN/A
7:30 PM63 °FPartly sunny.3 mph88%29.62 "HgN/A
7:00 PM63 °FPassing clouds.3 mph88%29.62 "HgN/A
6:30 PM64 °FBroken clouds.3 mph83%29.62 "HgN/A
6:00 PM63 °FPartly sunny.3 mph88%29.62 "HgN/A
5:30 PM61 °FSprinkles. Broken clouds.1 mph94%29.62 "Hg6 mi
5:00 PM64 °FSprinkles. Broken clouds.8 mph73%29.65 "Hg2 mi
4:58 PM64 °FSprinkles. Broken clouds.10 mph73%29.65 "Hg2 mi
4:30 PM70 °FBroken clouds.6 mph57%29.62 "HgN/A
4:00 PM72 °FBroken clouds.6 mph50%29.62 "HgN/A
Weather by CustomWeather, © 2015

See weather overviewHow to use our weather pages